| time (UTC) | temp C | wind direction | speed KPH | gust KPH | rain 1hr cm | rain 24hr cm | rain mn cm | humidity % | barometer mb |
| 20260505093059 | 15 | 360 | 0.0 | 3.2 | 0.00 | 0.00 | 0.00 | 92 | 1010.0 |
| 20260505091556 | 16 | 360 | 0.0 | 1.6 | 0.00 | 0.00 | 0.00 | 86 | 1009.9 |
| 20260505090036 | 16 | 360 | 0.0 | 1.6 | 0.00 | 0.00 | 0.00 | 87 | 1009.6 |
| 20260505084530 | 16 | 360 | 0.0 | 4.8 | 0.00 | 0.00 | 0.00 | 87 | 1009.6 |
| 20260505083027 | 16 | 360 | 0.0 | 6.4 | 0.00 | 0.00 | 0.00 | 87 | 1009.4 |
| 20260505081531 | 16 | 175 | 0.0 | 1.6 | 0.00 | 0.00 | 0.00 | 88 | 1009.2 |
| 20260505080032 | 15 | 360 | 0.0 | 0.0 | 0.00 | 0.00 | 0.00 | 93 | 1009.0 |
| 20260505074520 | 15 | 360 | 0.0 | 1.6 | 0.00 | 0.00 | 0.00 | 93 | 1008.8 |
| 20260505073048 | 15 | 360 | 0.0 | 1.6 | 0.00 | 0.00 | 0.00 | 93 | 1008.7 |
| 20260505071546 | 16 | 360 | 0.0 | 3.2 | 0.00 | 0.00 | 0.00 | 93 | 1008.5 |
| 20260505070048 | 16 | 360 | 0.0 | 1.6 | 0.00 | 0.00 | 0.00 | 92 | 1008.3 |
| 20260505064554 | 16 | 360 | 0.0 | 1.6 | 0.00 | 0.00 | 0.00 | 92 | 1008.2 |
| 20260505063043 | 16 | 360 | 0.0 | 1.6 | 0.00 | 0.00 | 0.00 | 91 | 1008.1 |
| 20260505061541 | 16 | 360 | 0.0 | 1.6 | 0.00 | 0.00 | 0.00 | 92 | 1008.1 |
| 20260505060030 | 16 | 360 | 0.0 | 1.6 | 0.00 | 0.00 | 0.00 | 92 | 1007.9 |
| 20260505054527 | 17 | 360 | 0.0 | 0.0 | 0.00 | 0.00 | 0.00 | 92 | 1007.8 |
| 20260505053025 | 17 | 360 | 0.0 | 1.6 | 0.00 | 0.00 | 0.00 | 91 | 1007.7 |
| 20260505051522 | 17 | 360 | 0.0 | 1.6 | 0.00 | 0.00 | 0.00 | 92 | 1007.7 |
| 20260505041526 | 18 | 360 | 0.0 | 0.0 | 0.00 | 0.00 | 0.00 | 90 | 1007.1 |
| 20260505040014 | 19 | 360 | 0.0 | 0.0 | 0.00 | 0.00 | 0.00 | 88 | 1007.0 |
| 20260505034511 | 20 | 360 | 0.0 | 1.6 | 0.00 | 0.00 | 0.00 | 84 | 1006.9 |
| 20260505033010 | 21 | 360 | 0.0 | 0.0 | 0.00 | 0.00 | 0.00 | 76 | 1006.7 |
| 20260505031511 | 24 | 360 | 0.0 | 1.6 | 0.00 | 0.00 | 0.00 | 63 | 1006.6 |
| 20260505030007 | 24 | 360 | 0.0 | 1.6 | 0.00 | 0.00 | 0.00 | 61 | 1006.5 |
| 20260505024515 | 25 | 360 | 0.0 | 1.6 | 0.00 | 0.00 | 0.00 | 60 | 1006.5 |
| 20260505023003 | 25 | 360 | 0.0 | 3.2 | 0.00 | 0.00 | 0.00 | 60 | 1006.6 |
| 20260505021503 | 25 | 360 | 0.0 | 3.2 | 0.00 | 0.00 | 0.00 | 59 | 1006.7 |
| 20260505020059 | 25 | 360 | 0.0 | 4.8 | 0.00 | 0.00 | 0.00 | 58 | 1006.9 |
| 20260505014558 | 25 | 248 | 0.0 | 3.2 | 0.00 | 0.00 | 0.00 | 60 | 1006.9 |
| 20260505013101 | 25 | 360 | 0.0 | 1.6 | 0.00 | 0.00 | 0.00 | 60 | 1006.9 |
| 20260505011559 | 25 | 360 | 0.0 | 3.2 | 0.00 | 0.00 | 0.00 | 60 | 1007.0 |
| 20260505010027 | 26 | 219 | 0.0 | 3.2 | 0.00 | 0.00 | 0.00 | 62 | 1007.1 |
| 20260505004527 | 26 | 360 | 0.0 | 1.6 | 0.00 | 0.00 | 0.00 | 62 | 1007.0 |
| 20260505003023 | 26 | 360 | 0.0 | 3.2 | 0.00 | 0.00 | 0.00 | 62 | 1007.0 |
| 20260505001522 | 27 | 360 | 0.0 | 3.2 | 0.00 | 0.00 | 0.00 | 61 | 1007.1 |
| 20260505000030 | 27 | 360 | 0.0 | 1.6 | 0.00 | 0.00 | 0.00 | 59 | 1007.2 |
| 20260504234520 | 27 | 360 | 0.0 | 1.6 | 0.00 | 0.00 | 0.00 | 58 | 1007.3 |
| 20260504233022 | 27 | 360 | 0.0 | 1.6 | 0.00 | 0.00 | 0.00 | 59 | 1007.4 |
| 20260504231525 | 27 | 360 | 0.0 | 1.6 | 0.00 | 0.00 | 0.00 | 58 | 1007.5 |
| 20260504230017 | 27 | 360 | 0.0 | 1.6 | 0.00 | 0.00 | 0.00 | 59 | 1007.6 |
| 20260504224514 | 27 | 360 | 0.0 | 1.6 | 0.00 | 0.00 | 0.00 | 60 | 1007.8 |
| 20260504223010 | 27 | 360 | 0.0 | 1.6 | 0.00 | 0.00 | 0.00 | 60 | 1007.9 |
| 20260504221506 | 26 | 360 | 0.0 | 1.6 | 0.00 | 0.00 | 0.00 | 62 | 1008.0 |
| 20260504220011 | 26 | 360 | 0.0 | 1.6 | 0.00 | 0.00 | 0.00 | 61 | 1008.0 |
| 20260504214502 | 26 | 360 | 0.0 | 3.2 | 0.00 | 0.00 | 0.00 | 65 | 1008.1 |
| 20260504213100 | 26 | 360 | 0.0 | 1.6 | 0.00 | 0.00 | 0.00 | 64 | 1008.2 |
| 20260504211558 | 25 | 360 | 0.0 | 1.6 | 0.00 | 0.00 | 0.00 | 65 | 1008.3 |
| 20260504210108 | 25 | 360 | 0.0 | 1.6 | 0.00 | 0.00 | 0.00 | 65 | 1008.3 |
| 20260504204601 | 26 | 360 | 0.0 | 1.6 | 0.00 | 0.00 | 0.00 | 65 | 1008.4 |
| 20260504203053 | 26 | 360 | 0.0 | 3.2 | 0.00 | 0.00 | 0.00 | 67 | 1008.5 |
| 20260504201551 | 25 | 360 | 0.0 | 1.6 | 0.00 | 0.00 | 0.00 | 69 | 1008.5 |
| 20260504200046 | 25 | 360 | 0.0 | 1.6 | 0.00 | 0.00 | 0.00 | 71 | 1008.6 |
| 20260504194601 | 25 | 360 | 0.0 | 3.2 | 0.00 | 0.00 | 0.00 | 71 | 1008.6 |
| 20260504193042 | 24 | 360 | 0.0 | 1.6 | 0.00 | 0.00 | 0.00 | 72 | 1008.6 |
| 20260504191546 | 23 | 360 | 0.0 | 1.6 | 0.00 | 0.00 | 0.00 | 73 | 1008.6 |
| 20260504190044 | 23 | 360 | 0.0 | 1.6 | 0.00 | 0.00 | 0.00 | 73 | 1008.8 |
| 20260504184539 | 23 | 360 | 0.0 | 1.6 | 0.00 | 0.00 | 0.00 | 76 | 1008.8 |
| 20260504183033 | 23 | 360 | 0.0 | 1.6 | 0.00 | 0.00 | 0.00 | 75 | 1008.7 |
| 20260504181502 | 23 | 360 | 0.0 | 1.6 | 0.00 | 0.00 | 0.00 | 75 | 1008.8 |
| 20260504180001 | 23 | 360 | 0.0 | 3.2 | 0.00 | 0.00 | 0.00 | 74 | 1008.8 |
| 20260504174533 | 23 | 360 | 0.0 | 1.6 | 0.00 | 0.00 | 0.00 | 72 | 1008.6 |
| 20260504173033 | 22 | 5 | 0.0 | 0.0 | 0.00 | 0.00 | 0.00 | 68 | 1008.7 |
| 20260504171521 | 22 | 32 | 0.0 | 1.6 | 0.00 | 0.00 | 0.00 | 71 | 1008.6 |
| 20260504120107 | 12 | 138 | 0.0 | 0.0 | 0.00 | 0.00 | 0.00 | 99 | 1007.9 |